Grand Forks, ND

6:43 PM CDT on July 24, 2017 (GMT -0500)
Grand Forks International

Weather History for KGFK - December, 2012

Change the Weather History Date:

Saturday, December 29, 2012

  Actual Average Record
Temperature  
Mean Temperature 2 °F 8 °F  
Max Temperature 12 °F 17 °F 49 °F (1999)
Min Temperature -8 °F -1 °F -26 °F (1976)
Degree Days  
Heating Degree Days 63 57  
Month to date heating degree days 1508 1545  
Since 1 July heating degree days 3636 3744  
Cooling Degree Days 0 0  
Month to date cooling degree days 0 0  
Year to date cooling degree days 572 379  
Moisture  
Dew Point -3 °F    
Average Humidity 81    
Maximum Humidity 91    
Minimum Humidity 71    
Precipitation  
Precipitation T in 0.02 in 0.24 in (1972)
Month to date precipitation 0.31 0.57  
Year to date precipitation 17.08 20.77  
Snow  
Snow 0.20 in 0.40 in 2.40 in (1972)
Month to date snowfall 5.0 10.0  
Since 1 July snowfall 14.7 19.2  
Snow Depth 4.00 in    
Sea Level Pressure  
Sea Level Pressure 30.07 in    
Wind  
Wind Speed 7 mph (WSW)    
Max Wind Speed 16 mph    
Max Gust Speed 20 mph    
Visibility 8 miles    
Events Snow    
T = Trace of Precipitation, MM = Missing Value Source: NWS Daily Summary

Daily Weather History Graph

Daily Weather History Graph

Search for Another Location

Airport or City:

Trip Planner

Search our weather history database for the weather conditions in past years. The results will help you decide how hot, cold, wet, or windy it might be!

Date:

Astronomy

Dec. 29, 2012 Rise Set
Actual Time 8:18 AM CST 4:44 PM CST
Civil Twilight 7:42 AM CST 5:20 PM CST
Nautical Twilight 7:02 AM CST 5:59 PM CST
Astronomical Twilight 6:24 AM CST 6:37 PM CST
Moon 6:26 PM CST (12/29) 8:45 AM CST (12/29)
Length of Visible Light 9h 38m
Length of Day
8h 25m
Full, 98% of the Moon is Illuminated
Dec 29
Full
Jan 4
Last Quarter
Jan 11
New
Jan 18
First Quarter
Jan 26
Full

Hourly Weather History & Observations

Time (CST) Temp. Windchill Dew Point Humidity Pressure Visibility Wind Dir Wind Speed Gust Speed Precip Events Conditions
12:53 AM 5.0 °F -10.0 °F -0.0 °F 80% 30.05 in 10.0 mi West 10.4 mph - N/A   Mostly Cloudy
1:53 AM 3.9 °F -11.3 °F -2.0 °F 76% 30.05 in 10.0 mi West 10.4 mph - N/A   Overcast
2:53 AM -0.9 °F -18.3 °F -7.1 °F 75% 30.06 in 10.0 mi West 11.5 mph - N/A   Mostly Cloudy
3:17 AM -2.2 °F -19.9 °F -7.6 °F 78% 29.99 in 10.0 mi West 11.5 mph - N/A   Clear
3:53 AM -4.0 °F -20.2 °F -9.9 °F 76% 30.06 in 10.0 mi West 9.2 mph - N/A   Clear
4:53 AM -7.1 °F -15.9 °F -11.9 °F 79% 30.06 in 10.0 mi West 3.5 mph - N/A   Clear
5:33 AM -5.8 °F -16.7 °F -11.2 °F 77% 29.98 in 10.0 mi WNW 4.6 mph - N/A   Mostly Cloudy
5:53 AM -2.9 °F -18.8 °F -9.0 °F 75% 30.06 in 9.0 mi WNW 9.2 mph - N/A   Overcast
6:53 AM -2.0 °F -16.6 °F -7.1 °F 79% 30.06 in 8.0 mi WNW 8.1 mph - 0.00 in Snow Light Snow
7:53 AM 1.0 °F -12.9 °F -5.1 °F 75% 30.08 in 8.0 mi WNW 8.1 mph - 0.00 in Snow Light Snow
8:53 AM 3.0 °F -8.0 °F -2.9 °F 76% 30.09 in 5.0 mi West 5.8 mph - 0.00 in Snow Light Snow
9:39 AM 3.2 °F -10.3 °F -2.2 °F 78% 30.03 in 2.0 mi WNW 8.1 mph - 0.00 in Snow Light Snow
9:53 AM 3.9 °F -9.4 °F -0.9 °F 80% 30.11 in 1.8 mi WNW 8.1 mph - 0.00 in Snow Light Snow
10:15 AM 5.0 °F -8.1 °F -0.4 °F 78% 30.05 in 2.0 mi WNW 8.1 mph - 0.00 in Snow Light Snow
10:53 AM 7.0 °F -5.7 °F 1.0 °F 77% 30.11 in 2.5 mi WNW 8.1 mph - 0.00 in Snow Light Snow
11:53 AM 8.1 °F -4.3 °F 1.9 °F 76% 30.11 in 2.5 mi West 8.1 mph - 0.00 in Snow Light Snow
12:13 PM 8.6 °F -2.6 °F 1.4 °F 73% 30.04 in 3.0 mi WNW 6.9 mph - 0.00 in Snow Light Snow
12:53 PM 9.0 °F -3.2 °F 1.0 °F 70% 30.11 in 10.0 mi NW 8.1 mph - 0.00 in   Scattered Clouds
1:53 PM 9.0 °F -0.9 °F 1.0 °F 70% 30.09 in 10.0 mi WNW 5.8 mph - N/A   Scattered Clouds
2:53 PM 9.0 °F 2.4 °F 1.0 °F 70% 30.10 in 10.0 mi WNW 3.5 mph - N/A   Scattered Clouds
3:53 PM 5.0 °F -5.6 °F -2.0 °F 73% 30.12 in 10.0 mi West 5.8 mph - N/A   Partly Cloudy
4:53 PM 1.9 °F - -2.9 °F 80% 30.12 in 10.0 mi Calm Calm - N/A   Partly Cloudy
5:53 PM 1.0 °F -6.7 °F -2.9 °F 83% 30.14 in 10.0 mi West 3.5 mph - N/A   Clear
6:53 PM -5.1 °F -15.8 °F -8.0 °F 87% 30.14 in 10.0 mi SSW 4.6 mph - N/A   Clear
7:53 PM -2.0 °F -10.1 °F -7.1 °F 79% 30.12 in 10.0 mi South 3.5 mph - N/A   Clear
8:14 PM -0.4 °F -10.4 °F -5.8 °F 78% 30.04 in 10.0 mi SSE 4.6 mph - N/A   Mostly Cloudy
8:53 PM 3.0 °F -6.4 °F -0.9 °F 84% 30.12 in 10.0 mi SSW 4.6 mph - N/A   Overcast
9:53 PM 7.0 °F -7.5 °F 1.0 °F 77% 30.09 in 10.0 mi South 10.4 mph - N/A   Overcast
10:18 PM 5.0 °F -9.1 °F -0.4 °F 78% 30.02 in 10.0 mi South 9.2 mph - N/A   Scattered Clouds
10:35 PM 6.8 °F -6.9 °F -0.4 °F 72% 30.02 in 10.0 mi South 9.2 mph - N/A   Mostly Cloudy
10:53 PM 5.0 °F -10.0 °F -0.9 °F 76% 30.09 in 10.0 mi South 10.4 mph - N/A   Mostly Cloudy
11:08 PM 3.2 °F -12.2 °F -2.2 °F 78% 30.03 in 10.0 mi South 10.4 mph - N/A   Scattered Clouds
11:53 PM 3.0 °F -12.5 °F -2.0 °F 80% 30.08 in 10.0 mi South 10.4 mph - N/A   Clear